Flag for Israel Weather past 2 weeks in Holon, Israel

Now
86 °F

Scattered clouds.


Feels Like: 91 °F
Forecast: 77 / 85 °F
Wind: 14 mph from West

Location: Dov Airport

Current Time: Jul 14, 2014 at 4:23:25 PM

Latest Report: Jul 14, 2014 at 3:50 PM


Visibility: N/A

Pressure: 29.77 "Hg

Humidity: 59%

Dew point: 70 °F

Location of HolonLocation

Historic Weather in Holon — Graph

°F

Holon temperature yesterday

Maximum temperature yesterday: 86 °F (at 11:50 AM)
Minimum temperature yesterday: 81 °F (at 5:00 AM)
Average temperature yesterday: 83 °F

Past Weeks' High & Low Weather Summary

 TemperatureHumidityPressure
High88 °F (Jun 29, 2:50 PM)89% (Jul 2, 5:50 AM)29.89 "Hg (Jul 2, 5:50 AM)
Low75 °F (Jul 2, 5:50 AM)55% (Jul 14, 1:50 PM)29.56 "Hg (Jul 4, 3:50 PM)
Average83 °F71%29.78 "Hg
* Reported Jun 29 2:50 PM — Jul 14 2:50 PM, Holon, Weather by CustomWeather, © 2014

Note: Actual official high and low records may vary slightly from our data, if they occured in-between our weather recording intervals... More about our weather records

Advertising

Holon weather history for previous 24 hours

 ConditionsComfort  
Time TempWeatherWind HumidityBarometerVisibility
2:50 PM
Jul 14
86 °FScattered clouds.15 mph59%29.77 "HgN/A
1:50 PM86 °FScattered clouds.14 mph55%29.77 "HgN/A
12:50 PM86 °FScattered clouds.14 mph59%29.77 "HgN/A
11:50 AM84 °FScattered clouds.14 mph58%29.77 "HgN/A
10:50 AM84 °FScattered clouds.13 mph58%29.80 "HgN/A
9:50 AM82 °FScattered clouds.13 mph62%29.80 "HgN/A
8:50 AM81 °FScattered clouds.13 mph66%29.80 "HgN/A
7:50 AM81 °FScattered clouds.12 mph66%29.80 "HgN/A
6:50 AM79 °FScattered clouds.12 mph65%29.77 "HgN/A
5:50 AM79 °FPassing clouds.10 mph65%29.77 "HgN/A
10:50 PM
Jul 13
81 °FPassing clouds.13 mph66%29.83 "HgN/A
9:50 PM81 °FPassing clouds.13 mph70%29.83 "HgN/A
8:50 PM81 °FPassing clouds.13 mph74%29.83 "HgN/A
7:50 PM82 °FScattered clouds.13 mph70%29.83 "HgN/A
6:50 PM84 °FPassing clouds.14 mph62%29.83 "HgN/A
5:50 PM84 °FPassing clouds.13 mph66%29.83 "HgN/A
4:50 PM84 °FPassing clouds.13 mph66%29.83 "HgN/A
Weather by CustomWeather, © 2014

See weather overviewHow to use our weather pages